|
NORAD ID: 21893 Int'l Code: 1992-010A
Perigee: 36,053.9 km
Apogee: 36,221.7 km
Inclination: 10.5 °
Period: 1,453.7 minutes
Semi major axis: 42508 km
Launch date: February 26, 1992
Source: Japan (JPN)
Two Line Element Set (TLE):
1 21893U 92010A 13139.57747367 -.00000239 00000-0 10000-3 0 5184
2 21893 010.4634 048.1890 0019742 007.9563 351.9889 00.99056883 77012
Source:
NASA's NSSDC Master Catalog entry for SUPERBIRD B1
|